Voltar ao catálogo

COSMOS 1275 DEB

AtivoPO
NORAD 39967·DEBRIS·🇷🇺 Russia

Lançado Jun 4, 1981 de Plesetsk Cosmodrome

Loading…

Próximas Passagens (próximas 24 horas)

TLE

AtualizadoSource: Space-Track

Época: Sep 11, 2026, 21:59 UTC

1 39967U 81053PD  26254.91649375  .00000632  00000-0  43317-3 0  9996
2 39967  82.9246 319.5769 0029318 277.8187  81.9654 13.97972696623564

Acompanhe COSMOS 1275 DEB em tempo real com AllMySat

Download on the App Store